This demonstration page uses our WeatherBlox Daily Observations layout. Learn more.

Left ArrowRight Arrow

Hourly Observations for August 16, 2015

Temp ( °F °C ) Dew Point ( °F °C ) Humidity (%) Winds ( mph kmh ) Pressure ( in mb ) Visibility ( mi km ) Precip ( " mm )
12:15 am 00:15 Clear 77 25.1 66 19.1 69 69 S 10 17 29.91 1013 10 16 N/A
12:35 am 00:35 Clear 77 25 66 19 69 69 S 15 24 29.88 1012 10 16 N/A
12:55 am 00:55 Clear 76 24.6 66 18.9 71 71 S 15 24 29.88 1012 10 16 N/A
1:15 am 01:15 Clear 76 24.5 66 18.8 71 71 S 15 24 29.91 1013 10 16 N/A
1:35 am 01:35 Clear 75 24.1 66 18.7 72 72 S 10 17 29.91 1013 10 16 N/A
1:55 am 01:55 Clear 75 23.9 65 18.6 72 72 S 12 19 29.88 1012 10 16 N/A
2:15 am 02:15 Clear 74 23.6 65 18.5 73 73 S 12 19 29.88 1012 10 16 N/A
2:35 am 02:35 Clear 74 23.5 65 18.2 72 72 S 12 19 29.88 1012 10 16 N/A
2:55 am 02:55 Clear 74 23.5 64 18 71 71 S 12 19 29.88 1012 10 16 N/A
3:15 am 03:15 Clear 74 23.2 64 17.8 72 72 S 10 17 29.91 1013 10 16 N/A
3:35 am 03:35 Clear 74 23.2 64 17.5 70 70 S 12 19 29.91 1013 10 16 N/A
3:55 am 03:55 Partly Cloudy 74 23.1 64 17.5 71 71 S 14 22 29.91 1013 10 16 N/A
4:15 am 04:15 Partly Cloudy 74 23.1 63 17.3 70 70 S 12 19 29.91 1013 10 16 N/A
4:35 am 04:35 Clear 73 23 63 17.2 70 70 S 9 15 29.88 1012 10 16 N/A
4:55 am 04:55 Partly Cloudy 73 22.5 63 17.2 72 72 SSE 8 13 29.91 1013 10 16 N/A
5:15 am 05:15 Mostly Cloudy 72 22.1 63 17.3 74 74 S 6 9 29.91 1013 10 16 N/A
5:35 am 05:35 Mostly Cloudy with Nearby Thunderstorms 72 22 64 17.5 76 76 SE 8 13 29.91 1013 10 16 N/A
5:55 am 05:55 Partly Cloudy with Nearby Thunderstorms 70 21.1 64 17.7 81 81 S 9 15 29.91 1013 10 16 N/A
6:15 am 06:15 Partly Cloudy with Nearby Thunderstorms 71 21.7 64 17.7 78 78 S 10 17 29.91 1013 10 16 N/A
6:35 am 06:35 Partly Cloudy with Nearby Thunderstorms 72 22.1 65 18.1 78 78 S 12 19 29.88 1012 10 16 N/A
6:55 am 06:55 Sunny with Nearby Thunderstorms 73 22.9 65 18.3 75 75 ESE 12 19 29.91 1013 10 16 N/A
7:15 am 07:15 Sunny 71 21.6 65 18.5 83 83 ESE 9 15 29.91 1013 10 16 N/A
7:35 am 07:35 Sunny 72 22 65 18.6 81 81 SSE 9 15 29.91 1013 10 16 N/A
7:55 am 07:55 Sunny with Nearby Thunderstorms 72 22.1 65 18.3 79 79 S 10 17 29.91 1013 10 16 N/A
8:15 am 08:15 Sunny 72 22 65 18.1 79 79 S 9 15 29.91 1013 10 16 N/A
8:35 am 08:35 Sunny with Thunderstorms 71 21.6 64 18 80 80 S 12 19 29.91 1013 10 16 N/A
8:55 am 08:55 Sunny with Nearby Thunderstorms 71 21.4 65 18.2 82 82 S 9 15 29.91 1013 10 16 N/A
9:15 am 09:15 Sunny 71 21.6 65 18.5 83 83 S 7 11 29.91 1013 10 16 N/A
9:35 am 09:35 Sunny 72 22.3 66 18.8 81 81 S 10 17 29.91 1013 10 16 N/A
9:55 am 09:55 Sunny with Nearby Thunderstorms 73 22.6 66 18.9 80 80 SSW 9 15 29.91 1013 10 16 N/A
10:15 am 10:15 Sunny with Nearby Thunderstorms 74 23.5 67 19.3 77 77 S 9 15 29.88 1012 10 16 N/A
10:35 am 10:35 Sunny 73 23 66 19 78 78 SSW 13 20 29.91 1013 10 16 N/A
10:55 am 10:55 Sunny 74 23.2 67 19.3 79 79 SSW 10 17 29.88 1012 7 11 N/A
11:15 am 11:15 Sunny 76 24.2 68 20 77 77 SSW 8 13 29.88 1012 10 16 N/A
11:35 am 11:35 Sunny 78 25.4 69 20.4 74 74 SW 9 15 29.88 1012 10 16 N/A
11:55 am 11:55 Sunny 79 26.2 70 21.1 74 74 SSW 7 11 29.88 1012 10 16 N/A
12:15 pm 12:15 Sunny 82 27.6 70 21.2 68 68 SSW 7 11 29.85 1011 10 16 N/A
12:35 pm 12:35 Sunny 83 28.5 70 21 64 64 SSW 3 6 29.85 1011 10 16 N/A
12:55 pm 12:55 Sunny 83 28.4 71 21.5 66 66 WNW 6 9 29.85 1011 10 16 N/A
1:15 pm 13:15 Sunny 82 27.7 70 20.9 67 67 NNW 3 6 29.85 1011 10 16 N/A
1:35 pm 13:35 Partly Cloudy 82 27.5 71 21.9 72 72 N 5 7 29.85 1011 10 16 N/A
1:55 pm 13:55 Mostly Cloudy 81 27 72 22.1 75 75 N 6 9 29.85 1011 10 16 N/A
2:15 pm 14:15 Mostly Cloudy 80 26.5 72 22.2 77 77 NNW 7 11 29.85 1011 10 16 N/A
2:35 pm 14:35 Partly Cloudy with Nearby Thunderstorms 82 27.5 72 22.2 73 73 NNW 8 13 29.88 1012 10 16 N/A
2:55 pm 14:55 Partly Cloudy with Nearby Thunderstorms 81 27 72 22.3 76 76 N 5 7 29.91 1013 10 16 N/A
3:15 pm 15:15 Cloudy with Thunderstorms 82 27.5 73 22.7 75 75 N 9 15 29.85 1011 10 16 N/A
3:35 pm 15:35 Cloudy with Nearby Thunderstorms 80 26.7 72 22.3 77 77 N 9 15 29.85 1011 10 16 N/A
3:55 pm 15:55 Cloudy 79 26 72 22.4 81 81 N 7 11 29.88 1012 10 16 N/A
4:15 pm 16:15 Cloudy 76 24.5 72 22.1 87 87 NE 10 17 29.88 1012 5 8 0.04 1.02
4:35 pm 16:35 Cloudy with Strong Thunderstorms 75 23.7 71 21.9 90 90 ESE 10 17 29.88 1012 3 5 0.16 4.06
4:55 pm 16:55 Mostly Cloudy 74 23.4 71 21.7 90 90 SE 14 22 29.94 1014 7 11 0.17 4.32
5:15 pm 17:15 Partly Cloudy 73 22.5 68 20.1 86 86 ESE 9 15 29.91 1013 10 16 N/A
5:35 pm 17:35 Partly Cloudy with Light Rain 74 23.3 71 21.8 91 91 SE 8 13 29.94 1014 7 11 0.01 0.25
5:55 pm 17:55 Partly Cloudy 74 23.1 71 21.7 92 92 SE 6 9 29.94 1014 7 11 0.01 0.25
6:15 pm 18:15 Mostly Cloudy with Light Rain 74 23.1 72 22 94 94 E 10 17 29.91 1013 4 6 N/A
6:35 pm 18:35 Mostly Cloudy 73 22.5 71 21.5 94 94 E 6 9 29.91 1013 5 8 0.01 0.25
6:55 pm 18:55 Mostly Cloudy with Light Rain 73 22.6 71 21.5 94 94 SSW 5 7 29.94 1014 5 8 0.01 0.25
7:15 pm 19:15 Mostly Cloudy with Light Rain 73 22.7 71 21.6 94 94 SSW 5 7 29.94 1014 5 8 0.02 0.51
7:35 pm 19:35 Mostly Cloudy with Light Rain 73 22.5 70 21.3 93 93 ENE 6 9 29.94 1014 10 16 0.03 0.76
7:55 pm 19:55 Partly Cloudy with Light Rain 73 22.5 70 21.3 93 93 NNE 3 6 29.91 1013 7 11 0.03 0.76
8:15 pm 20:15 Partly Cloudy with Drizzle 73 22.5 71 21.5 94 94 Calm 29.91 1013 7 11 N/A
8:35 pm 20:35 Partly Cloudy with Mist and Fog 73 22.5 71 21.5 94 94 Calm 29.91 1013 5 8 N/A
8:55 pm 20:55 Clear with Mist and Fog 72 22.3 71 21.5 95 95 W 5 7 29.91 1013 5 8 N/A
9:15 pm 21:15 Clear with Mist and Fog 72 22 70 21.2 95 95 WNW 6 9 29.94 1014 4 6 N/A
9:35 pm 21:35 Clear with Mist and Fog 71 21.8 70 21 95 95 NW 3 6 29.94 1014 4 6 N/A
9:55 pm 21:55 Clear with Mist and Fog 71 21.5 69 20.7 95 95 NNW 6 9 29.94 1014 5 8 0.00 0.00
10:15 pm 22:15 Clear with Mist and Fog 71 21.6 70 21 96 96 N 8 13 29.94 1014 4 6 N/A
10:35 pm 22:35 Partly Cloudy with Mist and Fog 71 21.5 69 20.8 96 96 NNE 13 20 29.94 1014 5 8 N/A
10:55 pm 22:55 Mostly Cloudy with Mist and Fog 70 21 68 20.1 95 95 NNE 12 19 29.94 1014 5 8 N/A
11:15 pm 23:15 Cloudy with Mist and Fog 69 20.8 68 20.1 96 96 N 12 19 29.94 1014 5 8 N/A
11:35 pm 23:35 Cloudy with Mist and Fog 69 20.8 68 20 95 95 NNE 12 19 29.94 1014 4 6 N/A
11:55 pm 23:55 Cloudy with Mist and Fog 69 20.8 68 20 95 95 NE 9 15 29.94 1014 4 6 N/A

Powered by AerisWeather